This demonstration page uses our WeatherBlox Daily Observations layout. Learn more.

Left ArrowRight Arrow

41.86663, -103.66717

Hourly Observations for March 14, 2016

Temp ( °F °C ) Dew Point ( °F °C ) Humidity (%) Winds ( mph kmh ) Pressure ( in mb ) Visibility ( mi km ) Precip ( " mm )
12:53 am 00:53 Clear 41 5 30 -1.1 65 65 NNW 6 9 29.67 1005 10 16 N/A
1:53 am 01:53 Clear 40 4.4 29 -1.7 65 65 N N/A 29.66 1004 10 16 N/A
2:53 am 02:53 Partly Cloudy 40 4.4 32 undefined 73 73 SSE 7 11 29.65 1004 10 16 N/A
3:53 am 03:53 Clear 38 3.3 30 -1.1 73 73 NNE 3 6 29.63 1004 10 16 N/A
4:53 am 04:53 Cloudy 40 4.4 32 undefined 73 73 ENE 5 7 29.63 1003 10 16 N/A
5:53 am 05:53 Cloudy 42 5.6 33 0.6 71 71 E 3 6 29.62 1003 10 16 N/A
6:53 am 06:53 Cloudy 42 5.6 33 0.6 71 71 ENE 6 9 29.61 1003 10 16 N/A
7:53 am 07:53 Cloudy 43 6.1 35 1.7 74 74 ESE 6 9 29.61 1003 10 16 N/A
8:53 am 08:53 Cloudy 47 8.3 34 1.1 61 61 E 8 13 29.59 1002 10 16 N/A
9:53 am 09:53 Cloudy 50 10 32 undefined 50 50 SE 6 9 29.59 1002 10 16 N/A
10:53 am 10:53 Cloudy 59 15 32 undefined 36 36 VRB 3 6 29.56 1001 10 16 N/A
11:40 am 11:40 Mostly Cloudy 63 17 27 -3 25 25 WSW 17 28 29.44 997 10 16 N/A
11:53 am 11:53 Mostly Cloudy 63 17.2 26 -3.3 25 25 SW 17 28 29.52 1000 10 16 N/A
12:10 pm 12:10 Mostly Cloudy 63 17 27 -3 25 25 W 14 22 29.44 997 10 16 N/A
12:53 pm 12:53 Mostly Cloudy 63 17.2 28 -2.2 27 27 WSW 32 52 29.53 1000 10 16 N/A
1:53 pm 13:53 Cloudy with Light Rain 54 12.2 32 undefined 43 43 W 33 54 29.58 1002 10 16 N/A
2:53 pm 14:53 Partly Cloudy 60 15.6 27 -2.8 28 28 W 28 44 29.54 1000 10 16 N/A
3:53 pm 15:53 Mostly Sunny 63 17.2 21 -6.1 20 20 W 30 48 29.53 1000 10 16 N/A
4:53 pm 16:53 Sunny 61 16.1 18 -7.8 19 19 W 24 39 29.52 1000 10 16 N/A
5:53 pm 17:53 Sunny 60 15.6 11 -11.7 14 14 W 22 35 29.52 1000 10 16 N/A
6:53 pm 18:53 Sunny 53 11.7 23 -5 31 31 NW 16 26 29.60 1002 10 16 N/A
7:53 pm 19:53 Clear 46 7.8 25 -3.9 44 44 W 8 13 29.63 1004 10 16 N/A
8:53 pm 20:53 Clear 43 6.1 26 -3.3 51 51 NW 9 15 29.68 1005 10 16 N/A
9:53 pm 21:53 Clear 40 4.4 30 -1.1 68 68 W 10 17 29.71 1006 10 16 N/A
10:53 pm 22:53 Clear 38 3.3 31 -0.6 76 76 WNW 7 11 29.69 1005 10 16 N/A
11:53 pm 23:53 Clear 35 1.7 30 -1.1 82 82 WNW 7 11 29.71 1006 10 16 N/A

Powered by AerisWeather